Vorticity
3 4 5 7 13 33 10 6 5 1 2 1 2 -1 2 4 26 11 8 7 -2 5 10 8 2 4 6 4 4 -2 8 5 3 7 3 2 2 3 11 7 6 4 4 4 5 7 8 4 4
3 4 8 3 7 5 37 -0 -8 6 7 7 14 6 17 6 8 4 7 5 7 6 10 4 9 14 10 1 5 3 5 7 3 2 4 -1 1 -0 7 10 6 5 5 4 7 4 5 4 7
2 6 -7 -12 11 16 -6 1 -8 2 8 8 -1 10 5 5 9 6 8 2 11 5 7 6 7 10 3 10 7 0 18 19 5 3 4 13 1 11 6 9 6 6 5 5 5 7 7 7 9
1 -7 -21 35 21 -0 5 -14 6 4 12 9 10 7 11 9 11 8 6 6 9 5 6 5 7 8 8 -5 17 -3 -0 14 -12 9 3 33 5 7 13 5 3 6 5 6 6 7 6 2 5
2 7 18 13 4 -0 4 5 12 2 3 3 5 2 -6 11 9 4 8 7 2 11 5 7 7 6 6 12 4 18 13 7 -4 39 4 23 10 -7 5 6 5 6 7 5 7 7 4 8 16
9 7 27 4 4 5 8 3 0 5 2 2 5 21 5 8 8 7 7 5 8 8 6 7 7 10 9 8 4 4 7 5 11 4 1 14 3 12 5 6 8 11 7 8 12 4 11 9 10
-5 2 -0 2 7 -3 4 10 14 10 4 14 4 11 5 -0 -2 6 7 5 9 8 7 7 7 9 9 12 17 11 -2 4 6 25 15 6 9 2 12 6 7 9 2 2 -1 10 9 9 9
7 -1 1 7 10 6 19 4 -2 -1 3 1 14 2 1 14 -4 6 3 6 9 10 6 7 9 8 6 8 7 5 28 6 16 11 -4 7 10 15 2 5 6 7 -2 10 8 7 5 7 8
-16 48 -9 32 9 8 13 10 11 9 5 10 8 7 22 13 1 8 12 6 7 11 10 6 8 8 5 8 2 2 18 8 8 12 1 16 4 7 2 3 5 10 10 10 2 7 5 -0 10
-21 -0 13 5 9 9 4 6 9 16 2 3 6 0 53 4 4 2 10 6 4 7 12 4 7 8 7 6 5 7 11 13 6 -1 12 -7 5 5 9 5 6 14 4 -2 7 6 6 9 0
2 -2 7 4 7 5 1 7 3 5 21 13 12 16 17 49 -6 1 10 -2 2 3 7 12 5 9 10 3 5 4 6 26 10 -1 -3 3 10 6 7 3 5 1 6 4 3 6 5 5 12
6 10 8 10 8 8 13 10 8 4 5 7 6 10 10 28 11 6 7 1 4 14 9 12 7 7 8 3 4 6 7 10 29 17 12 15 7 9 3 11 4 4 8 -7 19 3 5 4 7
14 20 8 10 10 7 7 7 11 8 5 10 9 6 13 6 10 9 9 10 10 8 9 10 12 7 9 5 4 6 9 4 0 15 31 4 14 3 7 5 4 10 3 -8 2 6 5 6 7
6 3 12 7 7 11 14 22 0 8 12 8 8 12 15 15 8 8 4 8 8 6 10 9 11 7 8 3 3 5 7 6 7 8 7 14 13 3 5 6 5 10 8 34 3 5 7 6 7
7 6 -16 10 3 14 14 -4 11 4 9 13 7 20 39 3 5 9 5 9 10 8 9 9 11 8 9 7 3 4 5 7 2 13 4 11 0 21 7 9 4 7 5 2 4 -1 6 8 6
2 21 29 4 -4 5 0 3 -6 7 8 13 12 -3 -5 18 7 9 11 10 9 8 11 9 9 9 10 7 4 6 5 2 6 13 17 11 20 9 5 8 5 6 7 6 9 5 4 10 5
-4 10 -2 6 -5 -3 15 2 5 9 7 3 8 6 4 16 17 7 8 9 11 9 8 8 9 11 10 8 9 10 8 3 11 22 19 1 10 4 6 7 5 5 9 7 1 1 2 11 4
5 -1 4 1 -0 16 15 6 7 -1 3 7 17 18 52 6 13 9 9 9 7 9 8 8 9 8 9 8 4 11 11 10 20 14 23 15 9 4 10 5 4 8 13 21 8 11 2 9 0
9 10 -2 -2 9 8 -5 -3 7 25 1 -8 13 7 24 15 8 5 9 7 7 8 12 11 10 10 7 9 11 5 5 4 21 12 8 18 13 7 10 7 4 5 7 2 1 1 8 4 9
10 -4 10 12 0 2 -3 5 -3 4 14 4 15 24 104 8 10 9 6 7 8 8 10 13 10 11 10 9 9 7 5 15 8 20 25 -0 3 2 8 7 6 7 6 4 12 8 -2 4 8
-9 1 -22 -0 3 3 -4 40 -1 3 5 12 23 15 17 13 7 8 7 7 7 6 9 12 10 9 9 9 2 9 5 6 9 3 31 -4 23 9 7 5 8 10 9 9 4 -2 6 -11 15
-6 15 8 6 16 2 14 26 20 7 2 4 8 12 7 15 61 13 5 9 6 5 6 12 11 7 10 11 11 7 3 4 7 8 8 -4 9 10 13 5 -3 7 9 6 5 4 7 6 28
-3 -13 1 13 3 5 -12 -2 -11 2 10 9 5 2 8 10 6 50 4 8 20 16 13 7 7 8 7 8 9 13 7 5 4 7 7 7 9 14 8 5 4 4 7 10 5 9 5 9 23
-5 17 20 -16 1 -6 16 13 -16 9 13 7 9 5 4 7 11 10 25 6 8 14 12 9 6 7 11 9 9 9 12 10 7 4 4 7 6 9 8 7 4 3 5 7 7 8 5 7 13
7 26 -2 3 45 16 -2 -7 15 -2 9 8 5 6 6 4 9 8 8 -0 15 1 8 7 9 9 8 9 10 10 8 10 10 11 11 6 6 5 9 11 8 6 5 6 6 6 9 7 7
24 -14 5 -3 4 9 8 -27 -9 9 4 -7 12 10 10 7 5 9 5 8 10 3 4 6 15 9 9 11 10 11 8 7 10 10 8 10 12 3 1 5 11 9 6 5 6 4 10 8 3
-10 -6 14 10 -8 -16 -2 4 -21 11 -2 -2 3 5 4 7 7 5 5 10 3 10 7 3 3 7 17 5 8 9 8 8 7 7 7 11 7 9 10 7 13 10 8 4 2 4 6 6 9
-7 3 4 2 15 14 31 -1 -31 32 8 3 -1 2 11 7 7 5 4 7 7 8 6 8 9 9 6 8 12 4 9 7 8 9 6 8 10 10 12 53 6 11 10 8 4 3 6 4 12
20 18 2 -18 1 4 -4 -5 34 32 -32 10 -1 2 6 7 2 3 5 6 6 6 7 5 4 4 4 4 6 10 9 7 7 10 9 10 10 10 13 10 10 43 14 9 7 6 4 5 14
-3 -9 4 5 16 10 -2 28 37 6 -15 6 -1 -1 4 9 10 10 8 3 2 2 6 7 5 3 6 3 6 4 3 8 10 5 6 10 13 11 7 14 15 42 33 10 4 8 8 6 11
Height
5904 5905 5906 5906 5912 5904 5904 5905 5908 5912 5911 5908 5911 5911 5911 5911 5913 5916 5916 5915 5914 5913 5915 5915 5915 5916 5917 5918 5918 5919 5920 5920 5920 5920 5919 5919 5920 5919 5918 5917 5915 5915 5915 5914 5914 5913 5913 5912 5912
5903 5904 5904 5902 5907 5903 5888 5905 5909 5911 5912 5908 5909 5911 5911 5911 5912 5915 5916 5914 5915 5913 5912 5914 5914 5914 5916 5917 5917 5918 5919 5920 5920 5920 5920 5919 5919 5919 5919 5918 5916 5916 5915 5914 5915 5914 5913 5913 5912
5904 5907 5899 5888 5904 5906 5904 5904 5911 5911 5910 5908 5908 5910 5910 5912 5913 5915 5915 5912 5914 5911 5911 5912 5913 5914 5915 5916 5916 5917 5918 5919 5919 5919 5920 5919 5920 5919 5919 5919 5918 5917 5916 5915 5915 5915 5914 5913 5912
5906 5910 5907 5892 5906 5909 5908 5901 5909 5913 5910 5910 5906 5906 5910 5911 5909 5914 5914 5912 5913 5910 5910 5911 5912 5913 5914 5915 5915 5916 5917 5917 5918 5918 5917 5917 5918 5919 5920 5919 5918 5918 5917 5915 5914 5915 5914 5913 5911
5904 5906 5904 5904 5907 5896 5910 5909 5911 5911 5911 5911 5907 5908 5910 5911 5907 5908 5911 5912 5911 5910 5909 5911 5911 5912 5913 5914 5914 5914 5915 5916 5916 5915 5916 5917 5917 5918 5920 5920 5919 5919 5917 5915 5914 5913 5913 5913 5912
5903 5906 5897 5906 5903 5907 5911 5909 5913 5912 5905 5910 5910 5906 5910 5911 5908 5907 5908 5910 5909 5911 5909 5910 5911 5911 5912 5913 5914 5913 5914 5914 5915 5916 5916 5917 5917 5917 5919 5919 5919 5918 5916 5915 5914 5913 5913 5913 5912
5903 5908 5906 5905 5907 5908 5910 5910 5910 5912 5909 5910 5908 5909 5911 5909 5912 5909 5909 5909 5908 5909 5910 5909 5910 5910 5910 5911 5912 5912 5913 5914 5914 5916 5916 5916 5916 5918 5920 5919 5918 5918 5916 5915 5914 5914 5913 5911 5910
5906 5907 5907 5907 5907 5908 5909 5910 5910 5909 5907 5906 5908 5913 5911 5912 5910 5909 5911 5910 5909 5909 5909 5908 5908 5910 5910 5910 5910 5911 5910 5912 5913 5914 5916 5916 5917 5918 5919 5918 5918 5918 5917 5915 5915 5915 5913 5911 5912
5909 5907 5908 5907 5907 5909 5910 5909 5909 5908 5906 5906 5907 5908 5912 5909 5908 5909 5908 5910 5908 5908 5908 5906 5907 5908 5909 5909 5910 5910 5910 5911 5912 5913 5914 5914 5916 5917 5917 5917 5918 5918 5917 5917 5917 5915 5915 5914 5912
5905 5910 5911 5909 5910 5910 5911 5909 5907 5906 5905 5906 5905 5904 5902 5904 5909 5909 5907 5907 5908 5907 5906 5905 5906 5907 5907 5907 5908 5909 5910 5911 5912 5913 5914 5916 5916 5917 5917 5917 5920 5919 5918 5918 5916 5914 5915 5916 5912
5904 5910 5909 5910 5910 5909 5909 5910 5907 5906 5901 5903 5902 5901 5901 5904 5906 5906 5907 5906 5906 5906 5904 5905 5905 5906 5907 5907 5908 5908 5909 5909 5910 5912 5915 5915 5916 5916 5916 5916 5919 5919 5921 5917 5916 5914 5915 5916 5916
5906 5906 5908 5908 5908 5908 5907 5907 5905 5905 5904 5901 5899 5897 5901 5904 5905 5906 5905 5904 5905 5904 5902 5904 5904 5904 5905 5907 5907 5907 5907 5907 5907 5909 5911 5913 5913 5914 5914 5914 5918 5921 5924 5920 5920 5920 5918 5917 5918
5904 5905 5906 5906 5907 5905 5906 5907 5906 5902 5902 5899 5897 5894 5899 5899 5899 5901 5903 5903 5903 5902 5902 5903 5903 5904 5905 5906 5906 5906 5907 5907 5908 5908 5909 5912 5911 5913 5914 5914 5918 5921 5923 5920 5920 5921 5920 5920 5919
5902 5902 5904 5903 5904 5906 5908 5908 5907 5904 5899 5898 5896 5896 5894 5895 5896 5898 5900 5901 5901 5900 5901 5901 5901 5902 5903 5905 5905 5905 5906 5907 5907 5908 5909 5910 5910 5911 5912 5914 5919 5920 5921 5921 5924 5922 5921 5919 5920
5901 5904 5905 5906 5905 5906 5908 5910 5907 5905 5898 5894 5895 5893 5893 5894 5896 5895 5896 5897 5899 5899 5902 5900 5899 5901 5902 5903 5904 5904 5904 5905 5906 5906 5907 5907 5908 5909 5910 5915 5916 5918 5921 5922 5922 5922 5922 5921 5918
5901 5905 5905 5907 5906 5906 5909 5908 5906 5902 5898 5893 5891 5892 5891 5892 5892 5891 5893 5894 5898 5898 5900 5900 5898 5900 5901 5902 5903 5903 5903 5902 5903 5904 5905 5906 5906 5908 5909 5913 5917 5917 5920 5920 5921 5921 5924 5920 5921
5904 5906 5906 5907 5907 5908 5907 5906 5902 5900 5895 5893 5890 5890 5886 5890 5892 5893 5894 5895 5895 5894 5896 5897 5897 5898 5899 5900 5901 5902 5901 5901 5901 5901 5903 5905 5906 5906 5910 5913 5915 5917 5919 5920 5921 5921 5921 5921 5923
5905 5907 5908 5909 5911 5910 5907 5907 5903 5899 5892 5892 5890 5888 5874 5881 5887 5889 5890 5892 5893 5893 5893 5894 5896 5898 5898 5898 5899 5900 5900 5900 5898 5898 5901 5903 5905 5909 5912 5912 5914 5915 5914 5917 5920 5919 5920 5921 5923
5905 5907 5906 5905 5913 5909 5908 5907 5905 5900 5887 5894 5885 5884 5881 5883 5885 5888 5890 5892 5892 5893 5896 5895 5895 5895 5896 5897 5898 5900 5900 5900 5899 5899 5900 5903 5905 5910 5913 5914 5915 5914 5917 5919 5922 5922 5921 5919 5921
5905 5906 5907 5910 5911 5910 5909 5907 5906 5904 5897 5893 5887 5879 5867 5880 5888 5889 5890 5894 5893 5892 5891 5892 5893 5894 5895 5897 5899 5900 5901 5901 5901 5900 5901 5905 5905 5910 5913 5914 5913 5914 5918 5921 5920 5921 5921 5925 5924
5904 5906 5907 5910 5909 5909 5910 5908 5906 5906 5900 5898 5891 5886 5884 5886 5887 5889 5892 5894 5895 5895 5893 5893 5894 5894 5895 5897 5898 5899 5901 5902 5902 5901 5901 5903 5904 5908 5912 5912 5913 5915 5919 5921 5921 5918 5924 5924 5924
5903 5906 5908 5908 5909 5908 5910 5908 5909 5904 5901 5902 5893 5895 5894 5894 5891 5891 5891 5895 5893 5892 5896 5896 5894 5894 5895 5896 5898 5899 5901 5902 5903 5902 5903 5905 5907 5907 5910 5912 5913 5916 5917 5919 5920 5920 5925 5925 5921
5903 5905 5907 5908 5905 5905 5906 5908 5904 5904 5899 5899 5897 5899 5900 5895 5891 5889 5893 5894 5892 5892 5897 5896 5894 5895 5896 5896 5897 5898 5900 5901 5902 5902 5903 5905 5905 5906 5907 5909 5912 5914 5916 5915 5918 5917 5921 5923 5923
5899 5903 5907 5909 5909 5902 5901 5906 5902 5901 5899 5896 5898 5896 5896 5896 5894 5896 5897 5898 5898 5897 5894 5895 5896 5896 5897 5897 5897 5897 5899 5900 5900 5901 5902 5904 5905 5905 5905 5907 5910 5912 5914 5914 5917 5917 5918 5920 5921
5899 5904 5906 5906 5903 5899 5900 5893 5904 5905 5901 5900 5898 5898 5897 5895 5898 5897 5897 5898 5897 5898 5895 5898 5898 5898 5898 5897 5897 5896 5898 5899 5899 5900 5900 5901 5904 5906 5906 5907 5909 5911 5912 5913 5914 5915 5915 5915 5915
5898 5902 5904 5904 5904 5898 5902 5900 5903 5905 5907 5903 5903 5901 5899 5899 5902 5901 5901 5901 5898 5898 5900 5899 5898 5900 5900 5898 5897 5898 5897 5898 5897 5898 5898 5899 5901 5904 5905 5905 5905 5908 5911 5910 5911 5914 5912 5912 5914
5899 5900 5904 5905 5903 5901 5901 5900 5902 5904 5906 5903 5902 5904 5903 5902 5901 5903 5904 5903 5903 5903 5903 5902 5901 5901 5900 5899 5898 5899 5898 5897 5896 5896 5896 5898 5898 5897 5902 5904 5905 5905 5909 5908 5908 5908 5909 5909 5911
5896 5898 5902 5902 5899 5897 5897 5898 5898 5899 5901 5903 5902 5902 5902 5902 5901 5900 5899 5902 5904 5904 5903 5903 5901 5900 5900 5899 5898 5898 5898 5897 5895 5894 5894 5896 5896 5897 5898 5892 5896 5899 5904 5906 5906 5907 5909 5910 5910
5898 5901 5903 5902 5899 5896 5893 5893 5887 5884 5897 5900 5902 5901 5902 5902 5901 5899 5898 5898 5900 5901 5902 5900 5899 5900 5901 5899 5898 5897 5896 5895 5893 5891 5891 5892 5894 5892 5896 5895 5894 5893 5899 5901 5904 5906 5906 5906 5908
5892 5895 5898 5898 5894 5892 5886 5886 5877 5862 5891 5894 5897 5898 5899 5901 5901 5899 5898 5895 5893 5893 5895 5897 5897 5896 5896 5896 5895 5894 5892 5891 5889 5888 5887 5887 5891 5891 5889 5888 5889 5890 5894 5897 5897 5901 5901 5902 5903